Location: Berbisdorf
(50.7638°N, 12.9442°E)
Time: 20:58:17
(UTC+00:00)

Cosmos 540 Rocket - Pass Details

Date: 07 June 2020
Orbit: 741 x 753 km, 74.1° (Epoch: 13 July)

Event Time Altitude Azimuth Distance (km) Brightness Sun altitude
Exits shadow 00:41:01 18° 222° (SW) 1,751 4.8 -13.6°
Maximum altitude 00:44:42 60° 298° (WNW) 855 3.8 -13.4°
Drops below altitude 10° 00:49:47 10° 19° (NNE) 2,266 7.4 -13.0°
Sets 00:52:11 0° 23° (NNE) 3,192 8.8 -12.9°
